Location: Drawsko Pomorskie
(53.5317°N, 15.8111°E)
Time: 01:55:09
(UTC+01:00)

ISS - Pass Details

Date: 26 January 2019
Orbit: 403 x 411 km, 51.6° (Epoch: 19 February)

Event Time Altitude Azimuth Distance (km) Brightness Sun altitude
Rises 17:38:10 0° 210° (SSW) 2,325 0.8 -10.4°
Reaches altitude 10° 17:40:41 10° 190° (S) 1,470 -0.6 -10.8°
Maximum altitude 17:42:59 18° 146° (SE) 1,100 -1.8 -11.1°
Enters shadow 17:44:38 13° 111° (ESE) 1,312 -1.7 -11.4°
